Weather History for San Luis Potosi, Mexico

Change the Weather History Date:

Sunday, November 10, 2013

  Actual Average Record
Temperature  
Mean Temperature 53 °F -  
Max Temperature 67 °F 70 °F 82 °F (2002)
Min Temperature 39 °F 41 °F 24 °F (1996)
Degree Days  
Heating Degree Days 12    
Growing Degree Days 3 (Base 50)    
Moisture  
Dew Point 52 °F    
Average Humidity 81    
Maximum Humidity 94    
Minimum Humidity 43    
Precipitation  
Precipitation 0.15 in - - ()
Sea Level Pressure  
Sea Level Pressure 30.21 in    
Wind  
Wind Speed 3 mph ()    
Max Wind Speed 16 mph    
Max Gust Speed -    
Visibility 9.3 miles    
Events      
Averages and records for this station are not official NWS values.
T = Trace of Precipitation, MM = Missing Value Source: Averaged Metar Reports

Daily Weather History Graph

Daily Weather History Graph

Search for Another Location

Airport:

Trip Planner

Search our weather history database for the weather conditions in past years. The results will help you decide how hot, cold, wet, or windy it might be!

Date:

Astronomy

Nov. 10, 2013 Rise Set
Actual Time 6:53 AM CST 6:02 PM CST
Civil Twilight 6:29 AM CST 6:25 PM CST
Nautical Twilight 6:02 AM CST 6:52 PM CST
Astronomical Twilight 5:36 AM CST 7:18 PM CST
Moon 1:23 PM CST (11/10) 12:24 AM CST (11/10)
Length of Visible Light 11h 55m
Length of Day
11h 08m
First Quarter, 56% of the Moon is Illuminated
Nov 10
First Quarter
Nov 17
Full
Nov 25
Last Quarter
Dec 2
New
Dec 9
First Quarter

Hourly Weather History & Observations

Time (CST) Temp. Dew Point Humidity Pressure Visibility Wind Dir Wind Speed Gust Speed Precip Events Conditions
12:47 AM 51.8 °F 50.0 °F 94% 30.31 in 8.0 mi NE 4.6 mph - N/A   Clear
1:40 AM 50.0 °F 48.2 °F 94% 30.31 in 6.0 mi Calm Calm - N/A   Clear
2:41 AM 50.0 °F 48.2 °F 94% 29.98 in 6.0 mi Calm Calm - N/A   Scattered Clouds
3:45 AM 50.0 °F 48.2 °F 94% 30.30 in 6.0 mi Calm Calm - N/A   Mostly Cloudy
4:52 AM 51.8 °F 50.0 °F 94% 30.30 in 6.0 mi NNE 5.8 mph - N/A   Mostly Cloudy
5:44 AM 51.8 °F 50.0 °F 94% 30.00 in 6.0 mi ENE 4.6 mph - N/A   Mostly Cloudy
5:45 AM - 53 °F % 30.10 in 3 mi Calm Calm - -   Haze
6:45 AM 53.6 °F 50.0 °F 88% 30.33 in 6.0 mi Calm Calm - N/A   Overcast
7:52 AM 53.6 °F 50.0 °F 88% 30.36 in 6.0 mi Calm Calm - N/A   Overcast
8:45 AM 55 °F 54 °F 93% 30.19 in 6 mi Calm Calm - -   Haze
8:50 AM 53.6 °F 50.0 °F 88% 30.09 in 7.0 mi Calm Calm - N/A   Overcast
9:48 AM 55.4 °F 53.6 °F 94% 30.39 in 8.0 mi Calm Calm - N/A   Overcast
10:56 AM 59.0 °F 55.4 °F 88% 30.39 in 10.0 mi Calm Calm - N/A   Overcast
11:42 AM 60.8 °F 55.4 °F 82% 30.09 in 10.0 mi Calm Calm - N/A   Overcast
11:45 AM 62 °F 54 °F 66% 30.18 in 6 mi ESE 2.2 mph - -   Haze
12:45 PM 62.6 °F 55.4 °F 77% 30.34 in 15.0 mi SE 4.6 mph - N/A   Mostly Cloudy
1:50 PM 64.4 °F 53.6 °F 68% 30.31 in 15.0 mi Calm Calm - N/A   Mostly Cloudy
2:48 PM 66.2 °F 51.8 °F 60% 29.97 in 15.0 mi NE 13.8 mph - N/A   Mostly Cloudy
3:43 PM 64.4 °F 53.6 °F 68% 30.28 in 15.0 mi ENE 16.1 mph - N/A   Mostly Cloudy
4:48 PM 64.4 °F 53.6 °F 68% 30.29 in 15.0 mi East 16.1 mph - N/A   Mostly Cloudy
5:48 PM 60.8 °F 55.4 °F 82% 30.05 in 15.0 mi East 10.4 mph - N/A   Mostly Cloudy
5:50 PM 65 °F 48 °F 43% 30.02 in 12 mi East 4.5 mph - -   Partly Cloudy
6:41 PM 57.2 °F 51.8 °F 82% 30.33 in 12.0 mi East 8.1 mph - N/A   Scattered Clouds
7:49 PM 57.2 °F 51.8 °F 82% 30.36 in 12.0 mi ENE 5.8 mph - N/A   Scattered Clouds
8:45 PM 57.2 °F 51.8 °F 82% 30.07 in 9.0 mi East 5.8 mph - N/A   Scattered Clouds
8:50 PM 60 °F 46 °F 50% 30.02 in 5 mi East 4.5 mph - -  
9:42 PM 57.2 °F 51.8 °F 82% 30.38 in 10.0 mi East 4.6 mph - N/A   Mostly Cloudy
10:45 PM 55.4 °F 51.8 °F 88% 30.39 in 10.0 mi ESE 6.9 mph - N/A   Overcast
11:42 PM 55.4 °F 53.6 °F 94% 30.06 in 10.0 mi East 4.6 mph - N/A   Overcast